[[{"header":{"parameterUnit":"m.s-1","parameterCategory":1,"la1":30.2991,"la2":30.254,"lo1":-89.0895,"lo2":-89.0444,"dy":0.0017,"dx":0.0017,"nx":28,"ny":28,"refTime":"2025-03-26T21:00:00:Z","depth":0,"parameterNumber":2,"parameterNumberName":"U-component_of_WINDS"},"data":[0,0,0,0,0,0,0,0,0,0,0,0,0,0,0,0,0,0,0,0,0,0,0,0,0,0,0,0,0,0,0,0,0,0,0,0,0,0,0,0,0,0,0,0,0,0,0,0,0,0,0,0,0,0,0,0,0,0,-4.6597,-4.6598,0,-4.6719,-4.6721,-4.6722,-4.6691,-4.6688,-4.6686,-4.6683,-4.6809,-4.6815,-4.682,0,0,0,0,0,0,0,0,0,0,0,0,0,-4.6336,-4.634,-4.6596,-4.6598,-4.66,-4.6719,-4.6721,-4.6723,-4.6691,-4.6688,-4.6685,-4.6682,-4.6808,-4.6814,-4.6821,0,0,0,0,0,0,0,0,0,0,0,0,0,-4.6453,-4.6342,-4.6596,-4.6598,-4.66,-4.6719,-4.6721,-4.6723,-4.6692,-4.6688,-4.6684,-4.6681,-4.6805,-4.6814,-4.6822,-4.6947,0,0,-4.6848,-4.6851,0,0,0,0,0,0,0,0,-4.6446,-4.6462,-4.6596,-4.6598,-4.66,-4.6686,-4.6675,-4.6798,-4.6693,-4.6657,-4.6683,-4.6679,-4.6771,-4.6782,-4.6813,-4.6953,-4.6958,-4.6848,-4.6853,-4.6857,-4.6859,0,0,0,0,0,0,0,-4.6438,-4.6457,-4.6645,-4.6598,-4.6601,-4.6593,-4.6606,-4.6698,-4.6733,-4.666,-4.6658,-4.6673,-4.6772,-4.6805,-4.6816,-4.696,-4.6848,-4.6856,-4.6861,-4.6864,-4.7208,-4.7212,0,0,0,0,0,0,-4.6428,-4.645,-4.6641,-4.6649,-4.6513,-4.6601,-4.6615,-4.6662,-4.6732,-4.6739,-4.6676,-4.6671,-4.6793,-4.6806,-4.682,-4.697,-4.6857,-4.6865,-4.687,-4.7204,-4.7209,-4.7213,0,0,0,0,0,0,-4.6423,-4.6446,-4.6636,-4.6549,-4.6573,-4.6609,-4.6662,-4.6666,-4.67,-4.6744,-4.675,-4.6703,-4.679,-4.6808,-4.6916,-4.6974,-4.6869,-4.6876,-4.7199,-4.7206,-4.7211,-4.7271,0,0,0,0,0,0,-4.6415,-4.6444,-4.6491,-4.655,-4.6578,-4.6729,-4.6666,-4.6671,-4.6715,-4.6709,-4.6772,-4.6778,-4.6789,-4.6903,-4.6924,-4.6984,-4.6883,-4.7194,-4.7202,-4.7209,-4.7264,-4.7278,-4.7291,0,0,0,0,0,-4.6406,-4.6503,-4.6494,-4.6517,-4.6637,-4.6732,-4.6748,-4.6758,-4.6719,-4.6767,-4.6796,-4.6776,-4.6965,-4.6914,-4.6937,-4.7001,-4.719,-4.72,-4.7209,-4.7258,-4.7276,-4.7291,0,0,0,0,0,0,-4.6449,-4.6511,-4.6501,-4.662,-4.6671,-4.6727,-4.6787,-4.6776,-4.6839,-4.6832,-4.6842,-4.6856,-4.6965,-4.6994,-4.6937,-4.7126,-4.7072,-4.7086,-4.7102,-4.7119,-4.7132,-4.7121,-4.689,0,0,0,0,0,-4.6473,-4.6544,-4.6595,-4.6695,-4.6721,-4.675,-4.6792,-4.6795,-4.6849,-4.687,-4.6906,-4.6959,-4.7031,-4.7077,-4.7145,-4.727,-4.7282,-4.7325,-4.7338,-4.7349,-4.736,-4.7428,-4.7447,-4.7244,-4.7244,-4.7243,0,0,-4.6521,-4.6564,-4.6608,-4.6704,-4.6744,-4.6818,-4.6768,-4.6849,-4.6904,-4.6882,-4.6985,-4.7014,-4.7074,-4.719,-4.7243,-4.7218,-4.742,-4.7361,-4.7369,-4.7374,-4.7439,-4.7458,-4.7475,-4.725,-4.7249,-4.7248,0,0,-4.6647,-4.6687,-4.6774,-4.6816,-4.6878,-4.6897,-4.6918,-4.6977,-4.6995,-4.7099,-4.7084,-4.7151,-4.7273,-4.7316,-4.7354,-4.75,-4.7483,-4.7522,-4.7591,-4.7656,-4.7672,-4.7686,-4.7737,-4.7755,-4.7534,-4.7534,-4.7534,0,-4.6699,-4.6809,-4.682,-4.6902,-4.6945,-4.6931,-4.7019,-4.7059,-4.714,-4.717,-4.7141,-4.7295,-4.7335,-4.746,-4.7496,-4.7528,-4.7552,-4.7513,-4.7669,-4.7684,-4.7697,-4.7745,-4.7764,-4.7538,-4.7537,-4.7537,-4.7536,0,-4.687,-4.6947,-4.7011,-4.7089,-4.714,-4.7225,-4.7249,-4.7299,-4.7299,-4.7322,-4.7428,-4.7475,-4.7552,-4.7583,-4.7584,-4.771,-4.7692,-4.7667,-4.7612,-4.772,-4.7765,-4.7784,-4.7543,-4.7542,-4.7541,-4.754,0,0,-4.7022,-4.7108,-4.713,-4.7166,-4.7234,-4.7294,-4.738,-4.7456,-4.7497,-4.7555,-4.7626,-4.7732,-4.7709,-4.7752,-4.7759,-4.7817,-4.7927,-4.7784,-4.7785,-4.7807,-4.8067,-4.8083,-4.8104,-4.7919,-4.7923,-4.7925,-4.8061,0,-4.7152,-4.73,-4.7314,-4.7448,-4.7519,-4.7508,-4.7582,-4.7633,-4.7657,-4.7722,-4.7749,-4.7823,-4.7788,-4.7814,-4.7871,-4.7901,-4.7979,-4.7892,-4.7984,-4.7987,-4.7965,-4.8128,-4.8145,-4.8271,-4.8079,-4.8082,-4.8084,0,-4.7321,-4.7384,-4.7525,-4.7584,-4.7615,-4.7681,-4.7752,-4.7814,-4.7872,-4.7886,-4.7935,-4.7934,-4.8023,-4.7969,-4.809,-4.8031,-4.807,-4.8091,-4.8096,-4.8102,-4.8039,-4.8136,-4.8311,-4.8329,-4.8112,-4.811,-4.8108,0,-4.7415,-4.7535,-4.7635,-4.7666,-4.7738,-4.7785,-4.7818,-4.7872,-4.7917,-4.798,-4.8009,-4.8082,-4.8121,-4.8177,-4.8196,-4.8156,-4.8317,-4.8264,-4.8329,-4.8329,-4.836,-4.8357,-4.8541,-4.8391,-4.8391,-4.8391,-4.839,0,-4.7556,-4.7642,-4.7678,-4.7738,-4.7835,-4.7851,-4.7946,-4.7977,-4.8025,-4.8092,-4.8089,-4.8152,-4.8175,-4.8242,-4.8258,-4.8355,-4.8374,-4.8386,-4.8389,-4.8385,-4.8383,-4.8408,-4.8398,-4.8396,-4.8395,-4.8394,-4.8393,0,-4.7675,-4.7703,-4.781,-4.7871,-4.7888,-4.7956,-4.8008,-4.8067,-4.8092,-4.8177,-4.8198,-4.8237,-4.8315,-4.8341,-4.8437,-4.8448,-4.856,-4.8557,-4.854,-4.854,-4.8602,-4.8595,-4.8806,-4.8834,-4.8668,-4.867,-4.8671,0,-4.7762,-4.7828,-4.7896,-4.794,-4.7975,-4.8047,-4.8093,-4.8113,-4.8161,-4.8233,-4.8283,-4.8362,-4.8425,-4.8552,-4.8588,-4.8662,-4.8658,-4.8727,-4.8669,-4.8663,-4.8656,-4.865,-4.8657,-4.8737,-4.8739,-4.874,-4.8741,0,-4.7912,-4.7923,-4.7989,-4.8061,-4.8117,-4.8174,-4.823,-4.8267,-4.8295,-4.835,-4.8431,-4.848,-4.8578,-4.8656,-4.8731,-4.8765,-4.8757,-4.876,-4.8778,-4.8773,-4.8759,-4.8765,-4.8567,-4.8754,-4.8753,-4.8752,-4.8751,-4.875,-4.8015,-4.8073,-4.813,-4.8205,-4.8249,-4.8302,-4.836,-4.8393,-4.8461,-4.8541,-4.855,-4.8637,-4.8695,-4.8795,-4.8833,-4.8901,-4.8881,-4.8909,-4.8915,-4.8921,-4.8924,-4.8752,-4.8915,-4.8915,-4.8915,-4.8915,-4.8914,0,-4.8163,-4.82,-4.8268,-4.8347,-4.8406,-4.8396,-4.8458,-4.8507,-4.8584,-4.8638,-4.8701,-4.8794,-4.887,-4.8914,-4.899,-4.9036,-4.9035,-4.9055,-4.905,-4.9058,-4.8939,-4.8914,-4.9055,-4.9055,-4.9055,-4.9055,-4.9055,-4.9055,-4.8246,-4.8343,-4.8361,-4.8481,-4.8517,-4.8602,-4.8638,-4.8687,-4.873,-4.8834,-4.8897,-4.8926,-4.8977,-4.9057,-4.9126,-4.9137,-4.9164,-4.9186,-4.9195,-4.9081,-4.9067,-4.9053,-4.9029,-4.9192,-4.9193,-4.9308,-4.9309,-4.931]},{"header":{"parameterUnit":"m.s-1","parameterCategory":1,"la1":30.2991,"la2":30.254,"lo1":-89.0895,"lo2":-89.0444,"dy":0.0017,"dx":0.0017,"nx":28,"ny":28,"refTime":"2025-03-26T21:00:00:Z","depth":0,"parameterNumber":3,"parameterNumberName":"V-component_of_WINDS"},"data":[0,0,0,0,0,0,0,0,0,0,0,0,0,0,0,0,0,0,0,0,0,0,0,0,0,0,0,0,0,0,0,0,0,0,0,0,0,0,0,0,0,0,0,0,0,0,0,0,0,0,0,0,0,0,0,0,0,0,1.8831,1.8832,0,1.8962,1.8964,1.8965,1.9007,1.9007,1.9006,1.9005,1.9136,1.914,1.9144,0,0,0,0,0,0,0,0,0,0,0,0,0,1.8615,1.8619,1.8831,1.8832,1.8834,1.8962,1.8964,1.8966,1.9007,1.9007,1.9006,1.9005,1.9135,1.914,1.9145,0,0,0,0,0,0,0,0,0,0,0,0,0,1.8724,1.862,1.8831,1.887,1.8875,1.8962,1.8964,1.8966,1.9007,1.9007,1.9006,1.9005,1.9133,1.9139,1.9145,1.92,0,0,1.9164,1.9166,0,0,0,0,0,0,0,0,1.8718,1.8732,1.8863,1.8868,1.8874,1.8968,1.8936,1.9044,1.9008,1.8957,1.9005,1.9004,1.9081,1.9091,1.9117,1.9206,1.9212,1.9164,1.9168,1.917,1.9172,0,0,0,0,0,0,0,1.871,1.8726,1.8883,1.8865,1.8871,1.8882,1.8896,1.8957,1.9022,1.8962,1.8965,1.898,1.9083,1.9111,1.9121,1.9214,1.9164,1.9169,1.9173,1.9176,1.9358,1.9359,0,0,0,0,0,0,1.8696,1.872,1.8879,1.8887,1.8792,1.8886,1.8902,1.8938,1.9022,1.9034,1.8981,1.8982,1.9102,1.9114,1.9125,1.9198,1.917,1.9176,1.918,1.9356,1.9358,1.9359,0,0,0,0,0,0,1.8691,1.871,1.8873,1.8804,1.8826,1.8891,1.8931,1.8941,1.8969,1.9036,1.9048,1.8998,1.9101,1.9117,1.9182,1.9203,1.9179,1.9184,1.9355,1.9357,1.9359,1.934,0,0,0,0,0,0,1.8685,1.8708,1.8729,1.8804,1.8829,1.8928,1.8932,1.8944,1.898,1.8983,1.9055,1.9066,1.9102,1.9173,1.9188,1.921,1.9189,1.9353,1.9356,1.9358,1.9339,1.9341,1.9343,0,0,0,0,0,1.8677,1.8718,1.873,1.8749,1.8858,1.8929,1.8943,1.8985,1.8982,1.9004,1.9047,1.9064,1.9198,1.9179,1.9197,1.9221,1.9352,1.9355,1.9358,1.9339,1.9341,1.9343,0,0,0,0,0,0,1.8641,1.8728,1.8743,1.8809,1.8862,1.8936,1.8965,1.8985,1.9039,1.9038,1.9086,1.9103,1.9165,1.9199,1.9177,1.928,1.9276,1.9282,1.9255,1.9258,1.926,1.925,1.9194,0,0,0,0,0,1.8641,1.8692,1.8765,1.8817,1.8842,1.8899,1.8932,1.896,1.9015,1.9037,1.9085,1.9138,1.9193,1.9227,1.9281,1.9345,1.9362,1.937,1.9372,1.9373,1.9378,1.9417,1.9422,1.9368,1.9368,1.9368,0,0,1.8641,1.8695,1.8724,1.8811,1.8855,1.8907,1.8918,1.8971,1.9011,1.9045,1.9111,1.9148,1.921,1.9276,1.9307,1.9307,1.9397,1.9377,1.9377,1.9382,1.9421,1.9426,1.943,1.937,1.937,1.9369,0,0,1.8668,1.8713,1.8763,1.8807,1.8875,1.8913,1.8925,1.8997,1.9024,1.9091,1.9119,1.9166,1.9258,1.9302,1.9336,1.9384,1.9402,1.94,1.9409,1.9446,1.9451,1.9455,1.9473,1.9479,1.9404,1.9404,1.9404,0,1.8659,1.874,1.8785,1.8839,1.8877,1.8913,1.8963,1.9004,1.9085,1.911,1.9109,1.9228,1.9272,1.935,1.9362,1.9388,1.9403,1.9392,1.9447,1.9451,1.9456,1.9474,1.9481,1.9404,1.9404,1.9404,1.9404,0,1.8726,1.8782,1.8813,1.8893,1.8935,1.8986,1.904,1.9076,1.9101,1.914,1.9209,1.9263,1.933,1.935,1.9374,1.9433,1.9431,1.9437,1.9434,1.9459,1.9478,1.9485,1.9403,1.9403,1.9403,1.9404,0,0,1.8732,1.8839,1.885,1.8888,1.8967,1.901,1.9064,1.9131,1.9163,1.9218,1.9265,1.9344,1.9352,1.9391,1.942,1.9453,1.949,1.9456,1.9458,1.9462,1.956,1.9555,1.9562,1.9502,1.9504,1.9505,1.9555,0,1.8771,1.887,1.8914,1.8993,1.9046,1.9083,1.913,1.9184,1.9221,1.9272,1.9313,1.9369,1.9374,1.9399,1.9433,1.9478,1.951,1.9475,1.9547,1.9549,1.9531,1.9571,1.9566,1.9611,1.9562,1.9564,1.9564,0,1.8828,1.8886,1.8971,1.9047,1.9071,1.9112,1.9179,1.9226,1.9288,1.9314,1.9359,1.9388,1.9447,1.944,1.9522,1.9497,1.9529,1.9556,1.9559,1.9568,1.9558,1.9582,1.9626,1.9633,1.9576,1.9575,1.9574,0,1.8826,1.8925,1.899,1.9021,1.911,1.9139,1.9177,1.9238,1.9277,1.9335,1.9361,1.9424,1.9458,1.9507,1.9552,1.9542,1.9631,1.9627,1.9654,1.9653,1.9671,1.9669,1.9721,1.969,1.969,1.969,1.969,0,1.8864,1.8915,1.8991,1.9031,1.909,1.914,1.9197,1.9238,1.9292,1.9341,1.9376,1.942,1.9477,1.9529,1.9565,1.9629,1.9644,1.9666,1.9675,1.9664,1.9661,1.9686,1.9684,1.9692,1.9691,1.9691,1.9691,0,1.8872,1.8924,1.8998,1.9077,1.9098,1.9138,1.9206,1.9247,1.9287,1.9349,1.9366,1.9429,1.9493,1.9543,1.9625,1.9649,1.9717,1.9726,1.9697,1.9702,1.9727,1.9724,1.9797,1.981,1.9769,1.9769,1.9769,0,1.8893,1.8934,1.9019,1.9055,1.9093,1.915,1.9191,1.9242,1.9283,1.9359,1.939,1.9457,1.9512,1.9612,1.9666,1.9729,1.9741,1.9762,1.9751,1.9739,1.9743,1.9741,1.9746,1.9764,1.9764,1.9764,1.9764,0,1.8926,1.8951,1.9009,1.9076,1.9124,1.9179,1.9235,1.9263,1.9324,1.9368,1.9435,1.9479,1.9565,1.963,1.97,1.9739,1.9763,1.9768,1.9778,1.9767,1.9748,1.976,1.9702,1.9765,1.9765,1.9765,1.9765,1.9765,1.8942,1.8982,1.9048,1.9112,1.916,1.9213,1.9256,1.9303,1.936,1.9435,1.9462,1.953,1.9594,1.969,1.973,1.9785,1.9786,1.98,1.9804,1.9807,1.9807,1.9739,1.9798,1.9798,1.9798,1.9798,1.9798,0,1.8979,1.9024,1.9083,1.9161,1.9212,1.9231,1.9295,1.9336,1.9397,1.9454,1.951,1.9588,1.9653,1.9712,1.978,1.9813,1.9825,1.9829,1.9827,1.9836,1.9801,1.9786,1.9818,1.9818,1.9818,1.9818,1.9818,1.9818,1.9004,1.9072,1.9105,1.9198,1.9243,1.9312,1.9347,1.9396,1.9443,1.9529,1.9584,1.9623,1.9682,1.9755,1.9816,1.9832,1.9856,1.9857,1.9876,1.9841,1.9838,1.9836,1.9823,1.9862,1.9862,1.9907,1.9908,1.9908]}]]